Time,TemperatureF,DewpointF,PressureIn,WindDirection,WindDirectionDegrees,WindSpeedMPH,WindSpeedGustMPH,Humidity,HourlyPrecipIn,Conditions,Clouds,dailyrainin,SoftwareType,DateUTC
2013-06-26 00:00:00,57.9,0.0,29.88,WSW,250,0.0,1.0,0,0.02,,OVC049,0.00,VWS V13.01,2013-06-26 07:00:00,
2013-06-26 00:05:00,57.9,0.0,29.88,WSW,250,0.0,1.0,0,0.02,,OVC049,0.00,VWS V13.01,2013-06-26 07:05:00,
2013-06-26 00:10:00,57.9,0.0,29.88,WSW,250,0.0,1.0,0,0.02,,OVC049,0.00,VWS V13.01,2013-06-26 07:10:00,
2013-06-26 00:15:00,57.9,0.0,29.88,WSW,250,0.0,0.0,0,0.02,,OVC049,0.00,VWS V13.01,2013-06-26 07:15:00,
2013-06-26 00:20:00,57.8,0.0,29.88,WSW,250,0.0,0.0,0,0.02,,OVC049,0.00,VWS V13.01,2013-06-26 07:20:00,
2013-06-26 00:25:00,57.8,0.0,29.88,WSW,250,0.0,0.0,0,0.02,,OVC049,0.00,VWS V13.01,2013-06-26 07:25:00,
2013-06-26 00:30:00,57.8,0.0,29.88,WSW,250,0.0,0.0,0,0.01,,OVC049,0.00,VWS V13.01,2013-06-26 07:30:00,
2013-06-26 00:36:00,57.8,0.0,29.88,WSW,250,0.0,0.0,0,0.01,,OVC049,0.00,VWS V13.01,2013-06-26 07:36:00,
2013-06-26 00:41:00,57.8,0.0,29.88,WSW,250,0.0,0.0,0,0.01,,OVC050,0.00,VWS V13.01,2013-06-26 07:41:00,
2013-06-26 00:46:00,57.7,0.0,29.88,WSW,251,0.0,0.0,0,0.00,,OVC050,0.00,VWS V13.01,2013-06-26 07:46:00,
2013-06-26 00:51:00,57.7,0.0,29.88,WSW,250,0.0,0.0,0,0.00,,OVC050,0.00,VWS V13.01,2013-06-26 07:51:00,
2013-06-26 00:56:00,57.7,0.0,29.88,WSW,250,0.0,0.0,0,0.00,,OVC050,0.00,VWS V13.01,2013-06-26 07:56:00,
2013-06-26 01:01:00,57.7,0.0,29.88,WSW,250,0.0,0.0,0,0.01,,OVC050,0.01,VWS V13.01,2013-06-26 08:01:00,
2013-06-26 01:06:00,57.7,0.0,29.88,WSW,250,0.0,0.0,0,0.01,,OVC050,0.01,VWS V13.01,2013-06-26 08:06:00,
2013-06-26 01:11:00,57.7,0.0,29.88,WSW,250,0.0,0.0,0,0.01,,OVC050,0.02,VWS V13.01,2013-06-26 08:11:00,
2013-06-26 01:16:00,57.7,0.0,29.88,WSW,250,0.0,0.0,0,0.02,,OVC050,0.03,VWS V13.01,2013-06-26 08:16:00,
2013-06-26 01:22:00,57.7,0.0,29.88,WSW,250,0.0,0.0,0,0.04,,OVC050,0.04,VWS V13.01,2013-06-26 08:22:00,
2013-06-26 01:27:00,57.7,0.0,29.88,WSW,250,0.0,0.0,0,0.06,,OVC050,0.06,VWS V13.01,2013-06-26 08:27:00,
2013-06-26 01:32:00,57.7,0.0,29.88,WSW,250,0.0,0.0,0,0.06,,OVC050,0.06,VWS V13.01,2013-06-26 08:32:00,
2013-06-26 01:37:00,57.8,0.0,29.88,WSW,250,0.0,0.0,0,0.07,,OVC050,0.07,VWS V13.01,2013-06-26 08:37:00,
2013-06-26 01:42:00,57.8,0.0,29.88,WSW,250,0.0,0.0,0,0.07,,OVC050,0.07,VWS V13.01,2013-06-26 08:42:00,
2013-06-26 01:47:00,57.8,0.0,29.88,WSW,250,0.0,0.0,0,0.07,,OVC050,0.07,VWS V13.01,2013-06-26 08:47:00,
2013-06-26 01:52:00,57.8,0.0,29.88,WSW,250,0.0,0.0,0,0.08,,OVC050,0.08,VWS V13.01,2013-06-26 08:52:00,
2013-06-26 01:57:00,57.8,0.0,29.88,WSW,250,0.0,0.0,0,0.08,,OVC050,0.08,VWS V13.01,2013-06-26 08:57:00,
2013-06-26 02:02:00,57.8,0.0,29.88,WSW,250,0.0,0.0,0,0.07,,OVC050,0.08,VWS V13.01,2013-06-26 09:02:00,
2013-06-26 02:08:00,57.8,0.0,29.88,WSW,250,0.0,0.0,0,0.08,,OVC050,0.09,VWS V13.01,2013-06-26 09:08:00,
2013-06-26 02:13:00,57.8,0.0,29.88,WSW,250,0.0,0.0,0,0.09,,OVC050,0.10,VWS V13.01,2013-06-26 09:13:00,
2013-06-26 02:18:00,57.8,0.0,29.88,WSW,250,0.0,0.0,0,0.09,,OVC050,0.11,VWS V13.01,2013-06-26 09:18:00,
2013-06-26 02:23:00,57.8,0.0,29.88,WSW,250,0.0,0.0,0,0.10,,OVC050,0.12,VWS V13.01,2013-06-26 09:23:00,
2013-06-26 02:28:00,57.8,0.0,29.88,WSW,250,0.0,0.0,0,0.10,,OVC050,0.12,VWS V13.01,2013-06-26 09:28:00,
2013-06-26 02:33:00,57.8,0.0,29.89,WSW,250,0.0,0.0,0,0.07,,OVC050,0.13,VWS V13.01,2013-06-26 09:33:00,
2013-06-26 02:38:00,57.8,0.0,29.89,WSW,250,0.0,0.0,0,0.07,,OVC050,0.13,VWS V13.01,2013-06-26 09:38:00,
2013-06-26 02:43:00,57.8,0.0,29.89,WSW,250,0.0,0.0,0,0.08,,OVC044,0.14,VWS V13.01,2013-06-26 09:43:00,
2013-06-26 02:48:00,57.8,0.0,29.89,WSW,250,0.0,0.0,0,0.07,,OVC044,0.14,VWS V13.01,2013-06-26 09:48:00,
2013-06-26 02:53:00,57.8,0.0,29.89,WSW,250,0.0,0.0,0,0.07,,OVC044,0.14,VWS V13.01,2013-06-26 09:53:00,
2013-06-26 02:59:00,57.8,0.0,29.89,WSW,250,0.0,0.0,0,0.07,,OVC044,0.14,VWS V13.01,2013-06-26 09:59:00,
2013-06-26 03:04:00,57.8,0.0,29.89,WSW,250,0.0,0.0,0,0.07,,OVC044,0.15,VWS V13.01,2013-06-26 10:04:00,
2013-06-26 03:09:00,57.8,0.0,29.89,WSW,250,0.0,1.0,0,0.07,,OVC044,0.15,VWS V13.01,2013-06-26 10:09:00,
2013-06-26 03:14:00,57.8,0.0,29.89,NNE,19,0.0,0.0,0,0.08,,OVC044,0.16,VWS V13.01,2013-06-26 10:14:00,
2013-06-26 03:19:00,57.8,0.0,29.89,NNE,19,0.0,0.0,0,0.06,,OVC044,0.16,VWS V13.01,2013-06-26 10:19:00,
2013-06-26 03:24:00,57.8,0.0,29.89,NNE,19,0.0,0.0,0,0.06,,OVC044,0.16,VWS V13.01,2013-06-26 10:24:00,
2013-06-26 03:29:00,57.8,0.0,29.89,NNE,19,0.0,0.0,0,0.06,,OVC044,0.16,VWS V13.01,2013-06-26 10:29:00,
2013-06-26 03:34:00,57.8,0.0,29.89,NNE,19,0.0,0.0,0,0.07,,OVC044,0.19,VWS V13.01,2013-06-26 10:34:00,
2013-06-26 03:39:00,57.8,0.0,29.89,NNE,19,0.0,0.0,0,0.08,,OVC055,0.21,VWS V13.01,2013-06-26 10:39:00,
2013-06-26 03:44:00,57.8,0.0,29.89,NNE,19,0.0,0.0,0,0.10,,OVC055,0.22,VWS V13.01,2013-06-26 10:44:00,
2013-06-26 03:50:00,57.8,0.0,29.89,NNE,19,0.0,0.0,0,0.10,,OVC039,0.24,VWS V13.01,2013-06-26 10:50:00,
2013-06-26 03:55:00,57.8,0.0,29.89,NNE,19,0.0,0.0,0,0.10,,OVC039,0.24,VWS V13.01,2013-06-26 10:55:00,
2013-06-26 04:00:00,57.8,0.0,29.89,NNE,19,0.0,0.0,0,0.10,,OVC039,0.24,VWS V13.01,2013-06-26 11:00:00,
2013-06-26 04:05:00,57.8,0.0,29.89,NNE,19,0.0,0.0,0,0.10,,OVC039,0.24,VWS V13.01,2013-06-26 11:05:00,
2013-06-26 04:10:00,57.8,0.0,29.89,NNE,19,0.0,0.0,0,0.10,,OVC039,0.24,VWS V13.01,2013-06-26 11:10:00,
2013-06-26 04:15:00,57.8,0.0,29.89,NNE,19,0.0,0.0,0,0.09,,OVC039,0.25,VWS V13.01,2013-06-26 11:15:00,
2013-06-26 04:20:00,57.8,0.0,29.89,NNE,19,0.0,0.0,0,0.09,,OVC039,0.25,VWS V13.01,2013-06-26 11:20:00,
2013-06-26 04:25:00,57.8,0.0,29.89,NNE,19,0.0,0.0,0,0.09,,OVC039,0.25,VWS V13.01,2013-06-26 11:25:00,
2013-06-26 04:30:00,57.8,0.0,29.89,NNE,19,0.0,0.0,0,0.09,,OVC039,0.25,VWS V13.01,2013-06-26 11:30:00,
2013-06-26 04:35:00,57.8,0.0,29.89,NNE,19,0.0,0.0,0,0.09,,OVC039,0.25,VWS V13.01,2013-06-26 11:35:00,
2013-06-26 04:41:00,57.8,0.0,29.89,NNE,19,0.0,0.0,0,0.09,,OVC070,0.25,VWS V13.01,2013-06-26 11:41:00,
2013-06-26 04:46:00,57.8,0.0,29.90,NNE,19,0.0,0.0,0,0.03,,OVC070,0.25,VWS V13.01,2013-06-26 11:46:00,
2013-06-26 04:51:00,57.8,0.0,29.90,NNE,19,0.0,0.0,0,0.03,,OVC070,0.25,VWS V13.01,2013-06-26 11:51:00,
2013-06-26 04:56:00,57.8,0.0,29.90,NNE,19,0.0,0.0,0,0.04,,OVC070,0.26,VWS V13.01,2013-06-26 11:56:00,
2013-06-26 05:01:00,57.8,0.0,29.90,NNE,19,0.0,0.0,0,0.02,,OVC070,0.27,VWS V13.01,2013-06-26 12:01:00,
2013-06-26 05:06:00,57.8,0.0,29.90,NNE,19,0.0,0.0,0,0.03,,OVC070,0.27,VWS V13.01,2013-06-26 12:06:00,
2013-06-26 05:11:00,57.8,0.0,29.90,NNE,19,0.0,0.0,0,0.03,,OVC070,0.27,VWS V13.01,2013-06-26 12:11:00,
2013-06-26 05:16:00,57.8,0.0,29.90,NNE,19,0.0,0.0,0,0.02,,OVC070,0.27,VWS V13.01,2013-06-26 12:16:00,
2013-06-26 05:21:00,57.8,0.0,29.90,NNE,19,0.0,0.0,0,0.03,,OVC070,0.28,VWS V13.01,2013-06-26 12:21:00,
2013-06-26 05:26:00,57.8,0.0,29.91,NNE,19,0.0,0.0,0,0.03,,OVC070,0.28,VWS V13.01,2013-06-26 12:26:00,
2013-06-26 05:31:00,57.8,0.0,29.91,NNE,19,0.0,0.0,0,0.03,,OVC070,0.28,VWS V13.01,2013-06-26 12:31:00,
2013-06-26 05:36:00,57.8,0.0,29.91,NNE,19,0.0,0.0,0,0.05,,OVC070,0.31,VWS V13.01,2013-06-26 12:36:00,
2013-06-26 05:41:00,57.8,0.0,29.91,NNE,19,0.0,0.0,0,0.07,,OVC070,0.32,VWS V13.01,2013-06-26 12:41:00,
2013-06-26 05:47:00,57.8,0.0,29.91,NNE,19,0.0,0.0,0,0.08,,OVC070,0.33,VWS V13.01,2013-06-26 12:47:00,
2013-06-26 05:51:00,57.9,0.0,29.92,NNE,19,0.0,0.0,0,0.08,,OVC060,0.33,VWS V13.01,2013-06-26 12:51:00,
2013-06-26 05:57:00,57.9,0.0,29.92,NNE,19,0.0,0.0,0,0.08,,OVC060,0.33,VWS V13.01,2013-06-26 12:57:00,
2013-06-26 06:02:00,57.8,0.0,29.92,NNE,19,0.0,0.0,0,0.07,,OVC060,0.33,VWS V13.01,2013-06-26 13:02:00,
2013-06-26 06:07:00,57.9,0.0,29.92,NNE,19,0.0,0.0,0,0.07,,OVC060,0.33,VWS V13.01,2013-06-26 13:07:00,
2013-06-26 06:12:00,57.9,0.0,29.92,NNE,19,0.0,0.0,0,0.07,,OVC060,0.33,VWS V13.01,2013-06-26 13:12:00,
2013-06-26 06:17:00,57.9,0.0,29.91,NNE,19,0.0,0.0,0,0.06,,OVC060,0.33,VWS V13.01,2013-06-26 13:17:00,
2013-06-26 06:22:00,57.9,0.0,29.91,NNE,19,0.0,0.0,0,0.06,,OVC060,0.33,VWS V13.01,2013-06-26 13:22:00,
2013-06-26 06:27:00,57.9,0.0,29.91,NNE,19,0.0,0.0,0,0.06,,OVC060,0.33,VWS V13.01,2013-06-26 13:27:00,
2013-06-26 06:32:00,58.0,0.0,29.91,NNE,19,0.0,0.0,0,0.05,,OVC060,0.33,VWS V13.01,2013-06-26 13:32:00,
2013-06-26 06:37:00,58.0,0.0,29.91,NNE,19,0.0,0.0,0,0.05,,OVC060,0.33,VWS V13.01,2013-06-26 13:37:00,
2013-06-26 06:42:00,58.1,0.0,29.91,NNE,19,0.0,0.0,0,0.05,,OVC032,0.33,VWS V13.01,2013-06-26 13:42:00,
2013-06-26 06:48:00,58.1,0.0,29.92,NNE,19,0.0,0.0,0,0.01,,OVC032,0.33,VWS V13.01,2013-06-26 13:48:00,
2013-06-26 06:53:00,58.2,0.0,29.91,NNE,19,0.0,1.0,0,0.01,,OVC032,0.33,VWS V13.01,2013-06-26 13:53:00,
2013-06-26 06:58:00,58.2,0.0,29.92,NNE,19,0.0,2.0,0,0.01,,OVC032,0.33,VWS V13.01,2013-06-26 13:58:00,
2013-06-26 07:03:00,58.3,0.0,29.92,NNE,19,0.0,0.0,0,0.00,,OVC032,0.33,VWS V13.01,2013-06-26 14:03:00,
2013-06-26 07:08:00,58.4,0.0,29.92,NNE,19,0.0,0.0,0,0.00,,OVC032,0.33,VWS V13.01,2013-06-26 14:08:00,
2013-06-26 07:13:00,58.5,0.0,29.93,NNE,19,0.0,0.0,0,0.00,,OVC032,0.33,VWS V13.01,2013-06-26 14:13:00,
2013-06-26 07:18:00,58.6,0.0,29.93,NNE,19,0.0,0.0,0,0.01,,OVC032,0.34,VWS V13.01,2013-06-26 14:18:00,
2013-06-26 07:23:00,58.6,0.0,29.93,NNE,19,0.0,0.0,0,0.01,,OVC032,0.34,VWS V13.01,2013-06-26 14:23:00,
2013-06-26 07:28:00,58.7,0.0,29.93,NNE,19,0.0,0.0,0,0.01,,OVC032,0.34,VWS V13.01,2013-06-26 14:28:00,
2013-06-26 07:33:00,58.8,0.0,29.93,NNE,19,0.0,0.0,0,0.01,,OVC032,0.34,VWS V13.01,2013-06-26 14:33:00,
2013-06-26 07:39:00,58.8,0.0,29.93,NNE,19,0.0,0.0,0,0.01,,OVC032,0.34,VWS V13.01,2013-06-26 14:39:00,
2013-06-26 07:44:00,58.9,0.0,29.94,NNE,19,0.0,0.0,0,0.01,,OVC032,0.34,VWS V13.01,2013-06-26 14:44:00,
2013-06-26 07:49:00,59.0,0.0,29.94,NNE,19,0.0,0.0,0,0.01,,OVC032,0.34,VWS V13.01,2013-06-26 14:49:00,
2013-06-26 07:54:00,59.1,0.0,29.94,NNE,19,0.0,0.0,0,0.01,,OVC055,0.34,VWS V13.01,2013-06-26 14:54:00,
2013-06-26 07:59:00,59.2,0.0,29.94,NNE,22,0.0,0.0,0,0.01,,OVC055,0.34,VWS V13.01,2013-06-26 14:59:00,
2013-06-26 08:04:00,59.3,0.0,29.94,NNE,22,0.0,0.0,0,0.01,,OVC055,0.34,VWS V13.01,2013-06-26 15:04:00,
2013-06-26 08:09:00,59.4,0.0,29.94,NNE,22,0.0,0.0,0,0.01,,OVC055,0.34,VWS V13.01,2013-06-26 15:09:00,
2013-06-26 08:14:00,59.5,0.0,29.95,NNE,22,0.0,0.0,0,0.01,,OVC055,0.34,VWS V13.01,2013-06-26 15:14:00,
2013-06-26 08:19:00,59.6,0.0,29.95,NNE,22,0.0,0.0,0,0.01,,OVC055,0.34,VWS V13.01,2013-06-26 15:19:00,
2013-06-26 08:24:00,59.7,0.0,29.95,NNE,22,0.0,0.0,0,0.01,,OVC055,0.34,VWS V13.01,2013-06-26 15:24:00,
2013-06-26 08:29:00,59.8,0.0,29.94,NNE,22,0.0,0.0,0,0.01,,OVC055,0.34,VWS V13.01,2013-06-26 15:29:00,
2013-06-26 08:34:00,60.1,0.0,29.95,WNW,293,0.0,1.0,0,0.00,,OVC055,0.34,VWS V13.01,2013-06-26 15:34:00,
2013-06-26 08:39:00,60.2,0.0,29.95,WNW,293,0.0,1.0,0,0.00,,OVC055,0.34,VWS V13.01,2013-06-26 15:39:00,
2013-06-26 08:44:00,60.3,0.0,29.95,WNW,284,0.0,0.0,0,0.00,,OVC047,0.34,VWS V13.01,2013-06-26 15:44:00,
2013-06-26 08:50:00,60.3,0.0,29.95,WNW,284,0.0,2.0,0,0.00,,OVC047,0.34,VWS V13.01,2013-06-26 15:50:00,
2013-06-26 08:55:00,60.4,0.0,29.95,WNW,284,1.0,2.0,0,0.00,,OVC047,0.34,VWS V13.01,2013-06-26 15:55:00,
2013-06-26 09:00:00,60.5,0.0,29.95,SSW,213,4.0,5.0,0,0.00,,OVC047,0.34,VWS V13.01,2013-06-26 16:00:00,
2013-06-26 09:05:00,60.7,0.0,29.95,West,277,2.0,5.0,0,0.00,,OVC047,0.34,VWS V13.01,2013-06-26 16:05:00,
2013-06-26 09:10:00,60.9,0.0,29.95,South,185,1.0,5.0,0,0.00,,OVC047,0.34,VWS V13.01,2013-06-26 16:10:00,
2013-06-26 09:15:00,61.3,0.0,29.95,WSW,242,2.0,2.0,0,0.00,,OVC047,0.34,VWS V13.01,2013-06-26 16:15:00,
2013-06-26 09:20:00,61.5,0.0,29.95,SSW,203,0.0,5.0,0,0.00,,OVC047,0.34,VWS V13.01,2013-06-26 16:20:00,
2013-06-26 09:25:00,61.7,0.0,29.95,SW,236,0.0,5.0,0,0.00,,OVC047,0.34,VWS V13.01,2013-06-26 16:25:00,
2013-06-26 09:30:00,61.8,0.0,29.96,SW,236,0.0,1.0,0,0.00,,OVC047,0.34,VWS V13.01,2013-06-26 16:30:00,
2013-06-26 09:35:00,62.0,0.0,29.96,SW,236,0.0,1.0,0,0.00,,OVC047,0.34,VWS V13.01,2013-06-26 16:35:00,
2013-06-26 09:40:00,62.4,0.0,29.96,SW,236,0.0,1.0,0,0.00,,OVC047,0.34,VWS V13.01,2013-06-26 16:40:00,
2013-06-26 09:45:00,62.9,0.0,29.96,SW,236,0.0,0.0,0,0.00,,OVC060,0.34,VWS V13.01,2013-06-26 16:45:00,
2013-06-26 09:51:00,63.2,0.0,29.96,SSW,211,1.0,5.0,0,0.00,,OVC060,0.34,VWS V13.01,2013-06-26 16:51:00,
2013-06-26 09:56:00,63.4,0.0,29.97,SSW,207,2.0,5.0,0,0.00,,OVC060,0.34,VWS V13.01,2013-06-26 16:56:00,
2013-06-26 10:01:00,64.2,0.0,29.96,SE,144,1.0,3.0,0,0.00,,OVC060,0.34,VWS V13.01,2013-06-26 17:01:00,
2013-06-26 10:06:00,65.1,0.0,29.96,NW,315,1.0,5.0,0,0.00,,OVC060,0.34,VWS V13.01,2013-06-26 17:06:00,
2013-06-26 10:11:00,65.6,-25.1,29.97,South,191,0.0,5.0,2,0.00,,OVC060,0.34,VWS V13.01,2013-06-26 17:11:00,
2013-06-26 10:16:00,65.0,4.8,29.97,ESE,107,2.0,5.0,9,0.00,,OVC060,0.34,VWS V13.01,2013-06-26 17:16:00,
2013-06-26 10:21:00,65.0,0.0,29.97,WNW,294,1.0,5.0,0,0.00,,OVC060,0.34,VWS V13.01,2013-06-26 17:21:00,
2013-06-26 10:26:00,65.0,0.0,29.97,SE,140,0.0,5.0,0,0.00,,OVC060,0.34,VWS V13.01,2013-06-26 17:26:00,
2013-06-26 10:31:00,64.8,20.3,29.98,SSE,155,3.0,4.0,18,0.00,,OVC060,0.34,VWS V13.01,2013-06-26 17:31:00,
2013-06-26 10:36:00,64.7,0.0,29.98,West,267,2.0,4.0,0,0.00,,OVC060,0.34,VWS V13.01,2013-06-26 17:36:00,
2013-06-26 10:41:00,64.9,29.2,29.97,ESE,122,0.0,4.0,26,0.00,,-RA,0.34,VWS V13.01,2013-06-26 17:41:00,
2013-06-26 10:47:00,65.5,0.0,29.97,NNE,12,0.0,1.0,0,0.00,,-RA,0.34,VWS V13.01,2013-06-26 17:47:00,
2013-06-26 10:52:00,65.7,0.0,29.98,East,80,1.0,2.0,0,0.00,,-RA,0.34,VWS V13.01,2013-06-26 17:52:00,
2013-06-26 10:57:00,65.4,37.1,29.98,SW,231,1.0,8.0,35,0.00,,-RA,0.34,VWS V13.01,2013-06-26 17:57:00,
2013-06-26 11:02:00,65.7,26.9,29.98,SW,233,2.0,2.0,23,0.00,,-RA,0.34,VWS V13.01,2013-06-26 18:02:00,
2013-06-26 11:07:00,65.9,26.0,29.97,WSW,257,2.0,3.0,22,0.00,,-RA,0.34,VWS V13.01,2013-06-26 18:07:00,
2013-06-26 11:12:00,66.1,39.1,29.97,South,191,0.0,4.0,37,0.00,,-RA,0.34,VWS V13.01,2013-06-26 18:12:00,
2013-06-26 11:17:00,66.6,0.0,29.97,South,171,1.0,1.0,0,0.00,,-RA,0.34,VWS V13.01,2013-06-26 18:17:00,
2013-06-26 11:22:00,66.6,25.5,29.97,SSW,199,3.0,5.0,21,0.00,,-RA,0.34,VWS V13.01,2013-06-26 18:22:00,
2013-06-26 11:27:00,66.8,39.0,29.97,SW,217,1.0,5.0,36,0.00,,-RA,0.34,VWS V13.01,2013-06-26 18:27:00,
2013-06-26 11:33:00,66.8,47.6,29.98,South,174,0.0,6.0,50,0.00,,-RA,0.34,VWS V13.01,2013-06-26 18:33:00,
2013-06-26 11:38:00,66.9,46.6,29.97,SW,219,1.0,9.0,48,0.00,,-RA,0.34,VWS V13.01,2013-06-26 18:38:00,
2013-06-26 11:43:00,67.1,44.5,29.98,SSE,159,3.0,9.0,44,0.00,,OVC070,0.34,VWS V13.01,2013-06-26 18:43:00,
2013-06-26 11:48:00,67.3,45.2,29.98,West,263,1.0,4.0,45,0.00,,OVC070,0.34,VWS V13.01,2013-06-26 18:48:00,
2013-06-26 11:53:00,67.7,45.0,29.98,West,278,2.0,4.0,44,0.00,,OVC070,0.34,VWS V13.01,2013-06-26 18:53:00,
2013-06-26 11:58:00,67.8,52.5,29.98,SW,218,2.0,4.0,58,0.00,,OVC070,0.34,VWS V13.01,2013-06-26 18:58:00,
2013-06-26 12:03:00,67.6,49.9,29.98,West,267,0.0,5.0,53,0.00,,OVC070,0.34,VWS V13.01,2013-06-26 19:03:00,
2013-06-26 12:08:00,67.4,26.1,29.98,West,267,0.0,5.0,21,0.00,,OVC070,0.34,VWS V13.01,2013-06-26 19:08:00,
2013-06-26 12:13:00,66.7,30.8,29.99,West,267,0.0,5.0,26,0.00,,OVC070,0.34,VWS V13.01,2013-06-26 19:13:00,
2013-06-26 12:18:00,66.4,14.1,29.99,West,267,0.0,0.0,13,0.00,,OVC070,0.34,VWS V13.01,2013-06-26 19:18:00,
2013-06-26 12:23:00,66.3,3.2,29.99,West,267,0.0,1.0,8,0.00,,OVC070,0.34,VWS V13.01,2013-06-26 19:23:00,
2013-06-26 12:28:00,66.1,0.0,29.99,SSW,208,2.0,3.0,0,0.00,,OVC070,0.34,VWS V13.01,2013-06-26 19:28:00,
2013-06-26 12:33:00,65.7,0.0,30.00,SSW,202,0.0,3.0,0,0.00,,OVC070,0.34,VWS V13.01,2013-06-26 19:33:00,
2013-06-26 12:38:00,65.9,0.0,30.00,SSW,202,0.0,3.0,0,0.00,,OVC070,0.34,VWS V13.01,2013-06-26 19:38:00,
2013-06-26 12:44:00,66.2,40.5,30.00,SSW,201,0.0,3.0,39,0.00,,OVC070,0.34,VWS V13.01,2013-06-26 19:44:00,
2013-06-26 12:49:00,67.1,38.6,30.00,SSW,201,1.0,2.0,35,0.00,,OVC070,0.34,VWS V13.01,2013-06-26 19:49:00,
2013-06-26 12:54:00,67.5,38.9,30.00,South,180,1.0,5.0,35,0.00,,OVC070,0.34,VWS V13.01,2013-06-26 19:54:00,
2013-06-26 12:59:00,67.6,1.3,30.00,South,180,0.0,5.0,7,0.00,,OVC070,0.34,VWS V13.01,2013-06-26 19:59:00,
2013-06-26 13:04:00,67.3,6.6,30.00,South,180,0.0,1.0,9,0.00,,OVC070,0.34,VWS V13.01,2013-06-26 20:04:00,
2013-06-26 13:09:00,66.9,0.0,30.00,South,180,0.0,1.0,0,0.00,,OVC070,0.34,VWS V13.01,2013-06-26 20:09:00,
2013-06-26 13:14:00,66.5,0.0,30.01,South,180,0.0,0.0,0,0.00,,OVC070,0.34,VWS V13.01,2013-06-26 20:14:00,
2013-06-26 13:19:00,66.3,0.0,30.01,South,180,0.0,0.0,0,0.00,,OVC070,0.34,VWS V13.01,2013-06-26 20:19:00,
2013-06-26 13:24:00,66.5,0.0,30.01,South,180,1.0,1.0,0,0.00,,OVC070,0.34,VWS V13.01,2013-06-26 20:24:00,
2013-06-26 13:29:00,67.2,0.0,30.01,West,263,1.0,2.0,0,0.00,,OVC070,0.34,VWS V13.01,2013-06-26 20:29:00,
2013-06-26 13:34:00,67.7,41.9,30.01,SW,216,2.0,3.0,39,0.00,,OVC070,0.34,VWS V13.01,2013-06-26 20:34:00,
2013-06-26 13:39:00,67.9,50.2,30.01,SSW,194,2.0,6.0,53,0.00,,OVC070,0.34,VWS V13.01,2013-06-26 20:39:00,
2013-06-26 13:44:00,68.1,49.3,30.01,SSW,195,2.0,2.0,51,0.00,,OVC070,0.34,VWS V13.01,2013-06-26 20:44:00,
2013-06-26 13:49:00,68.1,48.8,30.01,SE,146,0.0,6.0,50,0.00,,OVC070,0.34,VWS V13.01,2013-06-26 20:49:00,
2013-06-26 13:54:00,68.0,52.7,30.01,NE,49,2.0,6.0,58,0.00,,OVC070,0.34,VWS V13.01,2013-06-26 20:54:00,
2013-06-26 14:00:00,67.9,44.6,30.01,South,172,1.0,3.0,43,0.00,,OVC070,0.34,VWS V13.01,2013-06-26 21:00:00,
2013-06-26 14:05:00,67.7,39.1,30.01,ESE,112,0.0,3.0,35,0.00,,OVC070,0.34,VWS V13.01,2013-06-26 21:05:00,
2013-06-26 14:10:00,67.4,40.2,30.01,East,101,0.0,3.0,37,0.00,,OVC070,0.34,VWS V13.01,2013-06-26 21:10:00,
2013-06-26 14:15:00,67.4,4.1,30.01,SE,133,0.0,0.0,8,0.00,,OVC070,0.34,VWS V13.01,2013-06-26 21:15:00,
2013-06-26 14:20:00,67.1,-2.3,30.01,SSW,202,0.0,2.0,6,0.00,,OVC070,0.34,VWS V13.01,2013-06-26 21:20:00,
2013-06-26 14:25:00,66.5,33.3,30.01,SW,229,0.0,5.0,29,0.00,,OVC070,0.34,VWS V13.01,2013-06-26 21:25:00,
2013-06-26 14:30:00,66.4,-24.6,30.01,WSW,237,0.0,1.0,2,0.00,,OVC070,0.34,VWS V13.01,2013-06-26 21:30:00,
2013-06-26 14:35:00,66.4,0.0,30.01,WSW,237,0.0,1.0,0,0.00,,OVC070,0.34,VWS V13.01,2013-06-26 21:35:00,
2013-06-26 14:40:00,66.5,-6.5,30.01,WSW,237,0.0,1.0,5,0.00,,OVC070,0.34,VWS V13.01,2013-06-26 21:40:00,
2013-06-26 14:45:00,66.9,0.0,30.01,WSW,237,0.0,0.0,0,0.00,,OVC070,0.34,VWS V13.01,2013-06-26 21:45:00,
2013-06-26 14:50:00,67.3,0.0,30.02,WSW,237,0.0,0.0,0,0.00,,OVC070,0.34,VWS V13.01,2013-06-26 21:50:00,
2013-06-26 14:56:00,67.6,-16.0,30.02,WSW,237,0.0,0.0,3,0.00,,OVC070,0.34,VWS V13.01,2013-06-26 21:56:00,
2013-06-26 15:01:00,68.0,-1.6,30.02,WSW,237,0.0,0.0,6,0.00,,OVC070,0.34,VWS V13.01,2013-06-26 22:01:00,
2013-06-26 15:06:00,68.2,41.7,30.02,WSW,237,0.0,1.0,38,0.00,,OVC070,0.34,VWS V13.01,2013-06-26 22:06:00,
2013-06-26 15:11:00,68.7,48.2,30.02,SW,222,1.0,2.0,48,0.00,,OVC070,0.34,VWS V13.01,2013-06-26 22:11:00,
2013-06-26 15:16:00,68.3,51.5,30.02,South,169,1.0,5.0,55,0.00,,OVC070,0.34,VWS V13.01,2013-06-26 22:16:00,
2013-06-26 15:21:00,68.3,49.5,30.02,South,191,4.0,5.0,51,0.00,,OVC070,0.34,VWS V13.01,2013-06-26 22:21:00,
2013-06-26 15:26:00,68.1,52.3,30.02,SSW,209,5.0,9.0,57,0.00,,OVC070,0.34,VWS V13.01,2013-06-26 22:26:00,
2013-06-26 15:31:00,68.4,44.4,30.02,SE,132,2.0,4.0,42,0.00,,OVC070,0.34,VWS V13.01,2013-06-26 22:31:00,
2013-06-26 15:36:00,68.6,52.3,30.02,ESE,106,2.0,9.0,56,0.00,,OVC070,0.34,VWS V13.01,2013-06-26 22:36:00,
2013-06-26 15:41:00,68.4,49.6,30.02,SSE,165,0.0,9.0,51,0.00,,OVC048,0.34,VWS V13.01,2013-06-26 22:41:00,
2013-06-26 15:46:00,67.9,45.2,30.02,South,171,0.0,4.0,44,0.00,,OVC048,0.34,VWS V13.01,2013-06-26 22:46:00,
2013-06-26 15:51:00,67.8,39.2,30.02,South,177,3.0,4.0,35,0.00,,OVC048,0.34,VWS V13.01,2013-06-26 22:51:00,
2013-06-26 15:57:00,67.7,42.5,30.02,SSE,165,1.0,5.0,40,0.00,,OVC048,0.34,VWS V13.01,2013-06-26 22:57:00,
2013-06-26 16:02:00,68.3,42.4,30.02,South,178,2.0,5.0,39,0.00,,OVC048,0.34,VWS V13.01,2013-06-26 23:02:00,
2013-06-26 16:07:00,69.0,50.7,30.02,East,86,0.0,5.0,52,0.00,,OVC048,0.34,VWS V13.01,2013-06-26 23:07:00,
2013-06-26 16:12:00,69.7,51.3,30.02,WSW,258,0.0,5.0,52,0.00,,OVC048,0.34,VWS V13.01,2013-06-26 23:12:00,
2013-06-26 16:17:00,69.8,50.3,30.02,East,97,0.0,2.0,50,0.00,,OVC048,0.34,VWS V13.01,2013-06-26 23:17:00,
2013-06-26 16:22:00,69.5,47.8,30.02,East,87,0.0,2.0,46,0.00,,OVC048,0.34,VWS V13.01,2013-06-26 23:22:00,
2013-06-26 16:27:00,69.3,44.6,30.02,East,92,0.0,2.0,41,0.00,,OVC048,0.34,VWS V13.01,2013-06-26 23:27:00,
2013-06-26 16:32:00,69.2,39.7,30.02,East,93,0.0,0.0,34,0.00,,OVC048,0.34,VWS V13.01,2013-06-26 23:32:00,
2013-06-26 16:37:00,69.2,16.3,30.02,East,93,0.0,0.0,13,0.00,,OVC048,0.34,VWS V13.01,2013-06-26 23:37:00,
2013-06-26 16:42:00,69.2,19.6,30.02,SSE,161,1.0,2.0,15,0.00,,OVC060,0.34,VWS V13.01,2013-06-26 23:42:00,
2013-06-26 16:47:00,68.9,29.6,30.02,SSE,161,0.0,1.0,23,0.00,,OVC060,0.34,VWS V13.01,2013-06-26 23:47:00,
2013-06-26 16:52:00,68.6,9.9,30.02,SSE,168,0.0,1.0,10,0.00,,OVC060,0.34,VWS V13.01,2013-06-26 23:52:00,
2013-06-26 16:57:00,68.3,7.3,30.02,SSE,168,0.0,1.0,9,0.00,,OVC060,0.34,VWS V13.01,2013-06-26 23:57:00,
2013-06-26 17:02:00,68.1,-1.6,30.02,SSE,168,0.0,0.0,6,0.00,,OVC060,0.34,VWS V13.01,2013-06-27 00:02:00,
2013-06-26 17:07:00,67.9,-5.5,30.02,SSE,168,0.0,0.0,5,0.00,,OVC060,0.34,VWS V13.01,2013-06-27 00:07:00,
2013-06-26 17:12:00,67.9,0.0,30.02,SSE,168,0.0,0.0,0,0.00,,OVC060,0.34,VWS V13.01,2013-06-27 00:12:00,
2013-06-26 17:17:00,67.6,41.1,30.02,SSE,162,0.0,2.0,38,0.00,,OVC060,0.34,VWS V13.01,2013-06-27 00:17:00,
2013-06-26 17:22:00,67.9,0.0,30.02,SW,219,2.0,2.0,0,0.00,,OVC060,0.34,VWS V13.01,2013-06-27 00:22:00,
2013-06-26 17:27:00,67.5,0.0,30.02,SW,219,0.0,3.0,0,0.00,,OVC060,0.34,VWS V13.01,2013-06-27 00:27:00,
2013-06-26 17:33:00,67.3,0.0,30.02,SW,219,0.0,0.0,0,0.00,,OVC060,0.34,VWS V13.01,2013-06-27 00:33:00,
2013-06-26 17:38:00,67.5,0.0,30.03,SW,219,0.0,0.0,0,0.00,,OVC060,0.34,VWS V13.01,2013-06-27 00:38:00,
2013-06-26 17:43:00,67.6,-23.8,30.02,South,182,3.0,3.0,2,0.00,,OVC060,0.34,VWS V13.01,2013-06-27 00:43:00,
2013-06-26 17:48:00,67.9,9.4,30.02,SSE,156,0.0,5.0,10,0.00,,OVC060,0.34,VWS V13.01,2013-06-27 00:48:00,
2013-06-26 17:53:00,67.7,9.2,30.02,SW,217,0.0,5.0,10,0.00,,OVC060,0.34,VWS V13.01,2013-06-27 00:53:00,
2013-06-26 17:58:00,67.4,0.0,30.02,SW,217,0.0,5.0,0,0.00,,OVC060,0.34,VWS V13.01,2013-06-27 00:58:00,
2013-06-26 18:03:00,67.3,0.0,30.02,SW,217,0.0,0.0,0,0.00,,OVC060,0.34,VWS V13.01,2013-06-27 01:03:00,
2013-06-26 18:08:00,67.1,0.0,30.02,SW,217,0.0,0.0,0,0.00,,OVC060,0.34,VWS V13.01,2013-06-27 01:08:00,
2013-06-26 18:13:00,67.1,0.0,30.02,SW,217,0.0,0.0,0,0.00,,OVC060,0.34,VWS V13.01,2013-06-27 01:13:00,
2013-06-26 18:18:00,67.0,0.0,30.02,SW,217,0.0,0.0,0,0.00,,OVC060,0.34,VWS V13.01,2013-06-27 01:18:00,
2013-06-26 18:23:00,66.9,0.0,30.02,SW,217,0.0,0.0,0,0.00,,OVC060,0.34,VWS V13.01,2013-06-27 01:23:00,
2013-06-26 18:28:00,67.0,0.0,30.02,SW,217,0.0,1.0,0,0.00,,OVC060,0.34,VWS V13.01,2013-06-27 01:28:00,
2013-06-26 18:33:00,67.1,0.0,30.02,SW,217,0.0,1.0,0,0.00,,OVC060,0.34,VWS V13.01,2013-06-27 01:33:00,
2013-06-26 18:39:00,67.1,0.0,30.02,SW,217,0.0,1.0,0,0.00,,OVC060,0.34,VWS V13.01,2013-06-27 01:39:00,
2013-06-26 18:44:00,67.0,0.0,30.02,SW,217,0.0,1.0,0,0.00,,BKN075,0.34,VWS V13.01,2013-06-27 01:44:00,
2013-06-26 18:49:00,67.0,0.0,30.02,SW,217,0.0,0.0,0,0.00,,BKN075,0.34,VWS V13.01,2013-06-27 01:49:00,
2013-06-26 18:54:00,66.7,0.0,30.02,SW,217,0.0,0.0,0,0.00,,BKN075,0.34,VWS V13.01,2013-06-27 01:54:00,
2013-06-26 18:59:00,66.6,0.0,30.02,SW,217,0.0,0.0,0,0.00,,BKN075,0.34,VWS V13.01,2013-06-27 01:59:00,
2013-06-26 19:04:00,66.4,0.0,30.02,SW,217,0.0,0.0,0,0.00,,BKN075,0.34,VWS V13.01,2013-06-27 02:04:00,
2013-06-26 19:09:00,65.9,0.0,30.02,SW,217,0.0,0.0,0,0.00,,BKN075,0.34,VWS V13.01,2013-06-27 02:09:00,
2013-06-26 19:14:00,65.6,0.0,30.02,SW,217,0.0,0.0,0,0.00,,BKN075,0.34,VWS V13.01,2013-06-27 02:14:00,
2013-06-26 19:19:00,65.5,0.0,30.02,SW,217,0.0,0.0,0,0.00,,BKN075,0.34,VWS V13.01,2013-06-27 02:19:00,
2013-06-26 19:24:00,65.3,0.0,30.02,SW,217,0.0,0.0,0,0.00,,BKN075,0.34,VWS V13.01,2013-06-27 02:24:00,
2013-06-26 19:29:00,65.2,0.0,30.02,SW,217,1.0,2.0,0,0.00,,BKN075,0.34,VWS V13.01,2013-06-27 02:29:00,
2013-06-26 19:34:00,65.0,0.0,30.02,SW,217,0.0,2.0,0,0.00,,BKN075,0.34,VWS V13.01,2013-06-27 02:34:00,
2013-06-26 19:39:00,65.0,0.0,30.02,SW,217,0.0,2.0,0,0.00,,BKN075,0.34,VWS V13.01,2013-06-27 02:39:00,
2013-06-26 19:45:00,65.1,0.0,30.02,SW,215,0.0,0.0,0,0.00,,BKN065,0.34,VWS V13.01,2013-06-27 02:45:00,
2013-06-26 19:50:00,64.9,0.0,30.02,SW,215,0.0,0.0,0,0.00,,BKN065,0.34,VWS V13.01,2013-06-27 02:50:00,
2013-06-26 19:55:00,64.9,0.0,30.01,SW,215,0.0,0.0,0,0.00,,BKN065,0.34,VWS V13.01,2013-06-27 02:55:00,
2013-06-26 20:00:00,64.8,0.0,30.02,SW,215,0.0,0.0,0,0.00,,BKN065,0.34,VWS V13.01,2013-06-27 03:00:00,
2013-06-26 20:05:00,64.7,0.0,30.01,SW,215,0.0,0.0,0,0.00,,BKN065,0.34,VWS V13.01,2013-06-27 03:05:00,
2013-06-26 20:10:00,64.7,0.0,30.01,SW,215,0.0,0.0,0,0.00,,BKN065,0.34,VWS V13.01,2013-06-27 03:10:00,
2013-06-26 20:15:00,64.5,0.0,30.01,SW,215,0.0,0.0,0,0.00,,BKN065,0.34,VWS V13.01,2013-06-27 03:15:00,
2013-06-26 20:20:00,64.2,0.0,30.02,SW,215,0.0,1.0,0,0.00,,BKN065,0.34,VWS V13.01,2013-06-27 03:20:00,
2013-06-26 20:25:00,64.0,0.0,30.02,SW,215,0.0,1.0,0,0.00,,BKN065,0.34,VWS V13.01,2013-06-27 03:25:00,
2013-06-26 20:30:00,63.9,0.0,30.02,SW,215,0.0,0.0,0,0.00,,BKN065,0.34,VWS V13.01,2013-06-27 03:30:00,
2013-06-26 20:35:00,63.7,0.0,30.03,SW,215,0.0,0.0,0,0.00,,BKN065,0.34,VWS V13.01,2013-06-27 03:35:00,
2013-06-26 20:41:00,63.7,0.0,30.02,SW,215,0.0,0.0,0,0.00,,BKN060,0.34,VWS V13.01,2013-06-27 03:41:00,
2013-06-26 20:46:00,63.6,0.0,30.02,SW,215,0.0,0.0,0,0.00,,BKN060,0.34,VWS V13.01,2013-06-27 03:46:00,
2013-06-26 20:51:00,63.6,0.0,30.02,SW,215,0.0,0.0,0,0.00,,BKN060,0.34,VWS V13.01,2013-06-27 03:51:00,
2013-06-26 20:56:00,63.5,0.0,30.03,SW,215,0.0,0.0,0,0.00,,BKN060,0.34,VWS V13.01,2013-06-27 03:56:00,
2013-06-26 21:01:00,63.4,0.0,30.03,SW,215,0.0,0.0,0,0.00,,BKN060,0.34,VWS V13.01,2013-06-27 04:01:00,
2013-06-26 21:02:00,63.4,0.0,30.03,SW,215,0.0,0.0,0,0.00,,BKN060,0.34,VWS V13.01,2013-06-27 04:02:00,
2013-06-26 21:07:00,63.3,0.0,30.03,SW,215,0.0,0.0,0,0.00,,BKN060,0.34,VWS V13.01,2013-06-27 04:07:00,
2013-06-26 21:13:00,63.2,0.0,30.03,SW,215,0.0,0.0,0,0.00,,BKN060,0.34,VWS V13.01,2013-06-27 04:13:00,
2013-06-26 21:18:00,63.2,0.0,30.03,SW,215,0.0,0.0,0,0.00,,BKN060,0.34,VWS V13.01,2013-06-27 04:18:00,
2013-06-26 21:23:00,63.1,0.0,30.03,SW,215,0.0,0.0,0,0.00,,BKN060,0.34,VWS V13.01,2013-06-27 04:23:00,
2013-06-26 21:28:00,62.9,0.0,30.03,SW,215,0.0,0.0,0,0.00,,BKN060,0.34,VWS V13.01,2013-06-27 04:28:00,
2013-06-26 21:33:00,62.9,0.0,30.03,SW,215,0.0,0.0,0,0.00,,BKN060,0.34,VWS V13.01,2013-06-27 04:33:00,
2013-06-26 21:38:00,62.7,0.0,30.03,SW,215,0.0,0.0,0,0.00,,BKN060,0.34,VWS V13.01,2013-06-27 04:38:00,
2013-06-26 21:43:00,62.6,0.0,30.03,SW,215,0.0,0.0,0,0.00,,BKN070,0.34,VWS V13.01,2013-06-27 04:43:00,
2013-06-26 21:48:00,62.5,0.0,30.04,SW,215,0.0,0.0,0,0.00,,BKN070,0.34,VWS V13.01,2013-06-27 04:48:00,
2013-06-26 21:53:00,62.4,0.0,30.04,SW,215,0.0,0.0,0,0.00,,BKN070,0.34,VWS V13.01,2013-06-27 04:53:00,
2013-06-26 21:58:00,62.3,0.0,30.04,SW,215,0.0,0.0,0,0.00,,BKN070,0.34,VWS V13.01,2013-06-27 04:58:00,
2013-06-26 22:03:00,62.2,0.0,30.04,SW,215,0.0,0.0,0,0.00,,BKN070,0.34,VWS V13.01,2013-06-27 05:03:00,
2013-06-26 22:08:00,62.2,0.0,30.04,SW,215,0.0,0.0,0,0.00,,BKN070,0.34,VWS V13.01,2013-06-27 05:08:00,
2013-06-26 22:13:00,62.1,0.0,30.04,SW,215,0.0,0.0,0,0.00,,BKN070,0.34,VWS V13.01,2013-06-27 05:13:00,
2013-06-26 22:18:00,62.1,0.0,30.04,SW,215,0.0,0.0,0,0.00,,BKN070,0.34,VWS V13.01,2013-06-27 05:18:00,
2013-06-26 22:24:00,62.0,0.0,30.04,SW,215,0.0,0.0,0,0.00,,BKN070,0.34,VWS V13.01,2013-06-27 05:24:00,
2013-06-26 22:29:00,61.9,0.0,30.03,SW,215,0.0,0.0,0,0.00,,BKN070,0.34,VWS V13.01,2013-06-27 05:29:00,
2013-06-26 22:34:00,61.8,0.0,30.03,SW,215,0.0,0.0,0,0.00,,BKN070,0.34,VWS V13.01,2013-06-27 05:34:00,
2013-06-26 22:39:00,61.7,0.0,30.03,SW,215,0.0,0.0,0,0.00,,BKN070,0.34,VWS V13.01,2013-06-27 05:39:00,
2013-06-26 22:44:00,61.6,0.0,30.03,SW,215,0.0,0.0,0,0.00,,BKN070,0.34,VWS V13.01,2013-06-27 05:44:00,
2013-06-26 22:49:00,61.5,0.0,30.03,SW,215,0.0,0.0,0,0.00,,BKN070,0.34,VWS V13.01,2013-06-27 05:49:00,
2013-06-26 22:54:00,61.4,0.0,30.03,SW,215,0.0,0.0,0,0.00,,BKN070,0.34,VWS V13.01,2013-06-27 05:54:00,
2013-06-26 22:59:00,61.3,0.0,30.03,SW,215,0.0,0.0,0,0.00,,BKN070,0.34,VWS V13.01,2013-06-27 05:59:00,
2013-06-26 23:04:00,61.2,0.0,30.03,SW,215,0.0,0.0,0,0.00,,BKN070,0.34,VWS V13.01,2013-06-27 06:04:00,
2013-06-26 23:09:00,61.1,0.0,30.03,SW,215,0.0,0.0,0,0.00,,BKN070,0.34,VWS V13.01,2013-06-27 06:09:00,
2013-06-26 23:14:00,61.1,0.0,30.03,SW,215,0.0,0.0,0,0.00,,BKN070,0.34,VWS V13.01,2013-06-27 06:14:00,
2013-06-26 23:19:00,61.0,0.0,30.03,SW,215,0.0,0.0,0,0.00,,BKN070,0.34,VWS V13.01,2013-06-27 06:19:00,
2013-06-26 23:24:00,61.0,0.0,30.03,SW,215,0.0,0.0,0,0.00,,BKN070,0.34,VWS V13.01,2013-06-27 06:24:00,
2013-06-26 23:30:00,61.1,0.0,30.03,SW,215,0.0,0.0,0,0.00,,BKN070,0.34,VWS V13.01,2013-06-27 06:30:00,
2013-06-26 23:35:00,61.1,0.0,30.03,SW,215,0.0,0.0,0,0.00,,BKN070,0.34,VWS V13.01,2013-06-27 06:35:00,
2013-06-26 23:40:00,61.1,0.0,30.03,SW,215,0.0,0.0,0,0.00,,BKN070,0.34,VWS V13.01,2013-06-27 06:40:00,
2013-06-26 23:45:00,61.1,0.0,30.03,SW,215,0.0,0.0,0,0.00,,BKN070,0.34,VWS V13.01,2013-06-27 06:45:00,
2013-06-26 23:50:00,61.1,0.0,30.04,SW,215,0.0,0.0,0,0.00,,BKN070,0.34,VWS V13.01,2013-06-27 06:50:00,
2013-06-26 23:55:00,61.1,0.0,30.03,SW,215,0.0,2.0,0,0.00,,BKN070,0.34,VWS V13.01,2013-06-27 06:55:00,